[Date Prev][Date Next][Thread Prev][Thread Next] - [Date Index][Thread Index][Author Index]
2 Line ISS Keps 2-10
- Subject: [sarex] 2 Line ISS Keps 2-10
- From: "Dave Larsen PhD" <doc@xxxxxxxxxxx>
- Date: Sun, 10 Feb 2002 02:52:00 -0800
ISS
1 25544U 98067A 02041.16122948 .00069060 00000-0 81332-3 0 543
2 25544 51.6395 331.5046 0005989 58.4968 83.9710 15.60730099184218
----
Via the sarex mailing list at AMSAT.ORG courtesy of AMSAT-NA.
To unsubscribe, send "unsubscribe sarex" to Majordomo@amsat.org
AMSAT Home